Regional Weather Roundup
Issued by NWS Wakefield, VA

Home | Current Version | Previous Version | Text Only | Print | Product List | Glossary Off
Versions: 1 2 3 4 5 6 7 8 9 10 11 12 13 14 15 16 17 18 19 20 21 22 23 24 25 26 27 28

000
ASUS41 KAKQ 280315
RWRAKQ

REGIONAL WEATHER ROUNDUP
NATIONAL WEATHER SERVICE WAKEFIELD VA
1100 PM EDT FRI MAY 27 2016

Note: "fair" indicates few or no clouds below 12,000 feet with no
significant weather and/or obstructions to visibility. * = Denotes
station may not report precipitation (e.g., rain,snow,etc.),
thunder or fog.

VAZ042-051-052>054-056-280400-
NORTHERN VIRGINIA

CITY           SKY/WX    TMP DP  RH WIND       PRES   REMARKS
WASH NATIONAL  MOCLDY    76  68  76 S9        30.08S
DULLES         MOCLDY    79  67  66 W3        30.09R
FORT BELVOIR   MOCLDY    74  69  84 CALM      30.09R
QUANTICO       FAIR      76  68  76 SW8       30.09R
FREDERICKSBRG* FAIR      77  68  73 S7        30.09R
STAFFORD*      FAIR      71  67  87 CALM      30.13S
WARRENTON      FAIR      77  64  63 S3        30.09R
CULPEPER*      FAIR      73  70  90 CALM      30.10R
MANASSAS*      FAIR      73  70  88 CALM      30.08S
LEESBURG*      FAIR      77  70  78 CALM      30.09S
WINCHESTER     FAIR      68  64  88 CALM      30.10S
FRONT ROYAL*   FAIR      68  68 100 CALM      30.10S
LURAY*         FAIR      70  68  94 SW6       30.12S
$$

VAZ048-049-060>072-079>083-280400-
CENTRAL AND SOUTH CENTRAL VIRGINIA

CITY           SKY/WX    TMP DP  RH WIND       PRES   REMARKS
RICHMOND       FAIR      74  62  66 S9        30.12R
CHESTERFIELD*  FAIR      73  55  53 S7        30.14R
PETERSBURG*    FAIR      74  59  58 S3        30.14R
HANOVER        FAIR      76  63  64 S8G16     30.12R
TAPPAHANNOCK*  FAIR      75  65  69 S6        30.12S
QUINTON*       FAIR      76  62  63 S9        30.12R
CHARLOTTSVILLE MOCLDY    78  66  66 SW3       30.10R
GORDONSVILLE*  CLOUDY    71  70  96 CALM      30.10R
ORANGE*        MOCLDY    73  72  94 CALM      30.12R
LOUISA*        FAIR      79  70  73 CALM      30.09S
BUMPASS*       FAIR      74  66  76 CALM      30.10S
FARMVILLE*     FAIR      73  67  81 CALM      30.11R
CREWE*         FAIR      69  69 100 S3        30.12R
FORT PICKETT*  NOT AVBL
CHASE CITY*    CLOUDY    74  67  80 SE6       30.14R
CLARKSVILLE*   FAIR      72  64  78 S5        30.13R
SOUTH HILL*    FAIR      70  63  78 S5        30.19R
LAWRENCEVILLE* FAIR      71  61  70 SE3       30.14R
EMPORIA*       FAIR      68  57  68 SE5       30.16R
$$

VAZ088>098-280400-
SOUTHEAST VIRGINIA

CITY           SKY/WX    TMP DP  RH WIND       PRES   REMARKS
NORFOLK        FAIR      73  62  68 S12       30.15R
VIRGINIA BEACH FAIR      74  64  71 S7        30.14S
NORFOLK NAVAL  FAIR      73  63  70 S9        30.15S
WEST POINT*    FAIR      74  61  63 SE6       30.14R
SALUDA*        FAIR      73  64  75 S6        30.13R
NEWPORT NEWS   FAIR      74  60  61 S9        30.14R
LANGLEY AFB    FAIR      74  63  68 S9        30.14S
FORT EUSTIS    FAIR      74  60  62 S8        30.12S
WILLIAMSBURG*  FAIR      75  61  60 S7        30.15R
HR EXEC AP*    FAIR      70  57  64 S5        30.17S
FRANKLIN*      FAIR      70  55  58 S6        30.15S
US460-WAKEFLD  FAIR      73  53  49 S6        30.14R
$$

VAZ020-022-025-037-045-280400-
WEST CENTRAL AND SOUTHWEST VIRGINIA

CITY           SKY/WX    TMP DP  RH WIND       PRES   REMARKS
STAUNTON*      FAIR      67  66  98 CALM      30.16R FOG
WAYNESBORO*    FAIR      67  65  93 CALM      30.15F
HOT SPRINGS VA FAIR      67  62  86 SE7       30.24S
LYNCHBURG      FAIR      72  65  78 S3        30.14R
DANVILLE       FAIR      68  64  87 CALM      30.12R
SOUTH BOSTON*  MOCLDY    69  67  95 CALM      30.12R
MARTINSVILLE   FAIR      63  62  96 CALM      30.16R
ROANOKE        FAIR      75  65  70 SE6       30.15R
BLACKSBURG     FAIR      67  64  90 CALM      30.21R
DUBLIN*        FAIR      70  65  84 CALM      30.19R
MARION*        FAIR      65  62  90 CALM      30.22R
HILLSVILLE*    FAIR      66  62  86 S3        30.20R
RICHLANDS*     FAIR      68  68 100 S3        30.18S
WISE*          FAIR      66  59  77 SE3       30.19R
ABINGDON*      FAIR      67  67  99 E3        30.16S
$$

MDZ021>025-VAZ099-100-280400-
SOUTHERN MARYLAND AND THE DELMARVA PENINSULA

CITY           SKY/WX    TMP DP  RH WIND       PRES   REMARKS
PATUXENT RIVER CLEAR     73  61  65 S8        30.10S
BAY BRIDGE APT CLEAR     75  63  64 S14G20    30.09S
LEONARDTOWN    CLEAR     72  61  68 S5        30.12S
DOVER          PTCLDY    73  62  66 S10       30.09S
GEORGETOWN     CLEAR     71  57  61 S9        30.14R
EASTON         CLEAR     74  65  73 S9        30.15R
CAMBRIDGE      PTCLDY    72  61  68 S8        30.12R
SALISBURY      CLEAR     70  58  65 S8        30.13S
OCEAN CITY     CLEAR     71  61  70 SW15G24   30.14S
WALLOPS ISLAND FAIR      68  62  81 S15       30.15S
ACCOMACK*      FAIR      72  61  68 S12G20    30.15S
$$

NCZ012>017-030>032-280400-
NORTH CENTRAL AND EASTERN NORTH CAROLINA

CITY           SKY/WX    TMP DP  RH WIND       PRES   REMARKS
ROANOKE RAPIDS FAIR      70  61  73 SE3       30.15R
RALEIGH        PTCLDY    74  56  53 S6        30.15R
ELIZABETH CITY CLEAR     69  63  81 S5        30.16S
AHOSKIE*       CLEAR     68  61  76 S5        30.16R
EDENTON*       CLEAR    N/A N/A N/A SE5       30.17S
CURRITUCK*     CLEAR     70  64  79 S3        30.18R
KILL DEVIL HLS CLEAR     67  60  79 CALM      30.16F
MANTEO         NOT AVBL
CAPE HATTERAS  PTCLDY    74  66  76 SE6       30.16F
TARBORO*       FAIR      68  61  79 CALM      30.16R
GOLDSBORO      CLEAR     69  62  77 E3        30.13S
WASHINGTON     CLEAR     70  62  75 SE6       30.16R
GREENVILLE     CLEAR     70  59  68 CALM      30.17R
NEW BERN       PTCLDY    62  57  83 CALM      30.16S
WILMINGTON     MOCLDY    68  65  90 E3        30.13S
$$

VAZ048-280400-
ELSEWHERE

CITY           SKY/WX    TMP DP  RH WIND       PRES   REMARKS
HARRISBURG PA  CLOUDY    74  67  78 VRB3      30.07R
BALTIMORE      MOCLDY    73  65  75 CALM      30.08R
ANNAPOLIS      CLEAR     71  64  78 S9        30.09R
ANDREWS AFB    FAIR      74  67  77 S8        30.09R
PHILADELPHIA   PTCLDY    75  64  68 S7        30.09S
HENDERSON NC   CLEAR     70  58  66 S5        30.15R
GREENSBORO     PTCLDY    74  64  71 S5        30.13R
ROCKY MOUNT    CLEAR     71  58  63 S5        30.15R
$$

VAZ100-280400-
MARINE

STATION/POSITION TIME  TEMP    WIND        PRES    WAVE   SWELL
                       AIR SEA DIR/SP/G            HT/PER HT/PER
                 (UTC) (F)     (DEG/KT/KT) (MB)    (FT/S) (FT/S)
BRANDYWINE LGT   0200          210/ 16/ 17 1019.8R
CAPE MAY NJ      0200          180/  9/ 14 1019.7R
LEWES DE         0200          210/  6/ 12 1019.7R
15NM E FENWICK I 0250   64 60              1020.6R   3/ 4
OCEAN-CITY-INLET 0200          220/ 12/ 15 1021.0R
WACHAPREAGUE VA  0200          190/ 12/ 16 1020.4R
THOMAS POINT MD  0300   70 66  170/ 20/ 21 1020.0R
GOOSES REEF MD   0300   70 66  160/ 14/ 16 1020.4R   2/ 3
COVE POINT MD    0200          190/ 16/ 18 1019.9R
SOLOMONS ISLAND  0200          180/ 13/ 16   N/A
BISHOPS HEAD MD  0200          170/ 17/ 20 1019.8R
PINEY POINT MD   0200          170/  8/  9   N/A
POTOMAC MD       0300   70 67  190/ 12/ 14 1018.9R   2/ 3
CAMBRIDGE MD     0200          170/  9/ 13 1018.7R
LEWISETTA VA     0200          190/ 11/ 14 1019.1R
RAPPAHANNOCK LGT 0200          160/ 15/ 16 1021.1R
STINGRAY PT      0300   69 67  180/ 12/ 14 1020.7R   2/ 3
YORK RVR RNG VA  0200          170/ 13/ 15 1019.7R
YORKTOWN VA      0200          180/  8/ 11 1019.9R
JAMESTOWN VA     0300   75 73  160/  8/ 10   N/A     0
DOMINION TERM VA 0200          170/  9/ 11 1020.5R
KIPTOPEKE VA     0200          170/ 15/ 18   N/A
CHES BAY BRIDGE  0200          150/ 10/ 13 1020.7R
CAPE HENRY VA    0200          160/ 10/ 14   N/A
CHESAPEAKE LGHT  0200   71     170/ 20/ 22 1021.5R
WILLOUBY STN VA  0200          170/ 11/ 13 1021.5R
CAPE HENRY BUOY  0212      68                N/A     2/ 8
1ST LANDING BUOY 0300   71 70  160/ 10/ 12 1020.7F   1/ 3
CAPE CHARLES BUO 0226      68                N/A     2/ 3   2/ 8
OFFSHORE WE BUOY 0221      67                N/A     2/ 7   2/ 7
64NM E OF VA BCH 0250   66 63  170/  6/  8 1021.6S   2/ 8   2/ 8
DUCK PIER NC     0200          150/  9/  9 1021.1R
44100 DUCK FRF   0224      66                N/A     2/ 7
44056 DUCK FRF   0211      63                N/A     2/ 8
OREGON INLET NC  0200          130/  4/  6 1021.8R
HATTERAS NC      0200          150/  6/  8 1021.0R
DIAMOND SHLS NC  0250   77 78  130/ 10/ 12 1021.1F   3/ 8   2/ 8
CAPEC1F1C2F2C3F3C4F4C5F5C6F6C7F7C8M1C9!



USA.gov is the U.S. government's official web portal to all federal, state and local government web resources and services.